Погода в Круглом

Россия / Курганская область     54°30′01″N   64°53′46″E
темп.,
°C
ветер,
м/с
пор.,
м/с
влажн.,
%
обл.,
%
осадки,
мм/ч
давл.,
гПа
погр.,
м
23 мая, пн
пн2323:00+7юз61274100 1.5 1004328
02:00+6ююз511770 0.0 1006277
05:00+5ю5128399 0.0 1007335
08:00+8ююв51078100 0.0 10061220
11:00+7вюв61092100 2.0 1004536
14:00+12ююз61492100 1.9 1003904
17:00+12ююз3119343 2.8 1004410
20:00+14юз5139098 1.2 1004511
24 мая, вт
вт2423:00+12ююз4995100 1.5 1007207
02:00+13ююз41094100 0.3 1009271
05:00+13ююв4890100 0.6 1009154
08:00+16ююв587082 0.1 1010412
11:00+21ююз7104499 0.1 10091047
14:00+25ююз8103416 0.0 10092017
17:00+26ююз593615 0.0 10092549
20:00+21юв4553100 0.0 101063
25 мая, ср
ср2523:00+18ююв51348100 0.0 1011193
02:00+17юв51149100 0.0 1010168
05:00+16юв51346100 0.0 1010219
08:00+19ююв61546100 0.0 1010420
11:00+23ююв61241100 0.0 1010618
14:00+26ююв8102799 0.0 10092317
17:00+25юв693197 0.0 10081852
20:00+21вюв51246100 0.0 1007223
26 мая, чт
чт2623:00+19юв614475 0.0 1006259
02:00+17вюв6144969 0.0 1005223
05:00+17вюв7165080 0.0 1003312
08:00+21юв5134799 0.0 1001586
11:00+23ююв584687 1.5 9991268
14:00+23з8752100 0.3 999738
17:00+11зсз101584100 3.3 1005737
20:00+11з612726 0.0 10101045
27 мая, пт
пт2723:00+8з410735 0.0 1012334
02:00+7зюз410742 0.0 1014255
05:00+6з39810 0.0 1015252
08:00+10з46630 0.0 1016735
11:00+14зюз57496 0.0 10161716
14:00+16зюз4542100 0.0 10162031
17:00+16зюз4541100 0.0 10161915
20:00+14юз3457100 0.0 101679